VE3KSR Weather Reports


Display with metric or nautical units.
time (UTC)temp
F
wind
direction
speed
MPH
gust
MPH
rain 1hr
in
rain 24hr
in
rain mn
in
humidity
%
barometer
mb
20150306212944 14 0 0.0 0.0 0.67 0.00 0.00 81 1027.0
20150306212444 14 0 0.0 0.0 0.67 0.00 0.00 88 1027.0
20150306211944 14 0 0.0 0.0 0.67 0.00 0.00 88 1027.1
20150306211444 14 0 0.0 0.0 0.67 0.00 0.00 87 1027.3
20150306210944 14 0 0.0 0.0 0.67 0.00 0.00 86 1027.2
20150306210444 15 0 0.0 0.0 0.67 0.00 0.00 86 1027.3
20150306205945 15 0 0.0 0.0 0.67 0.00 0.00 85 1027.4
20150306205527 15 0 0.0 0.0 0.67 0.00 0.00 86 1027.5
20150306205444 15 0 0.0 0.0 0.67 0.00 0.00 86 1027.5
20150306205048 15 0 0.0 0.0 0.67 0.00 0.00 85 1027.5
20150306205044 15 0 0.0 0.0 0.67 0.00 0.00 85 1027.7
20150306204944 15 0 0.0 0.0 0.67 0.00 0.00 85 1027.5
20150306204444 15 0 0.0 0.0 0.67 0.00 0.00 85 1027.7
20150306203944 15 0 0.0 0.0 0.67 0.00 0.00 85 1028.0
20150306203444 15 0 0.0 0.0 0.67 0.00 0.00 84 1027.9
20150306202944 15 0 0.0 0.0 0.67 0.00 0.00 84 1028.0
20150306202445 15 0 0.0 0.0 0.67 0.00 0.00 81 1028.0
20150306201944 15 0 0.0 0.0 0.67 0.00 0.00 82 1028.1
20150306201444 15 0 0.0 0.0 0.67 0.00 0.00 84 1028.2
20150306200944 15 0 0.0 0.0 0.67 0.00 0.00 84 1028.2
20150306200444 15 0 0.0 0.0 0.67 0.00 0.00 84 1028.3
20150306195944 15 0 0.0 0.0 0.67 0.00 0.00 86 1028.5
20150306194743 14 0 0.0 0.0 0.67 0.00 0.00 85 1028.7
20150306194444 14 0 0.0 0.0 0.67 0.00 0.00 85 1028.7
20150306193944 14 0 0.0 0.0 0.67 0.00 0.00 85 1028.7
20150306193444 14 0 0.0 0.0 0.67 0.00 0.00 85 1028.9
20150306192945 14 0 0.0 0.0 0.67 0.00 0.00 87 1029.0
20150306192444 14 0 0.0 0.0 0.67 0.00 0.00 86 1029.2
20150306191945 14 0 0.0 0.0 0.67 0.00 0.00 85 1029.3
20150306191445 14 0 0.0 0.0 0.67 0.00 0.00 84 1029.4
20150306190944 14 0 0.0 0.0 0.67 0.00 0.00 84 1029.5
20150306190444 14 0 0.0 0.0 0.67 0.00 0.00 84 1029.5
20150306185945 14 0 0.0 0.0 0.67 0.00 0.00 84 1029.7
20150306185447 14 0 0.0 0.0 0.67 0.00 0.00 84 1029.8
20150306184944 14 0 0.0 0.0 0.67 0.00 0.00 84 1030.0
20150306184445 14 0 0.0 0.0 0.67 0.00 0.00 84 1030.2
20150306183945 13 0 0.0 0.0 0.67 0.00 0.00 83 1030.3
20150306183444 13 0 0.0 0.0 0.67 0.00 0.00 83 1030.4
20150306182944 13 0 0.0 0.0 0.67 0.00 0.00 83 1030.4
20150306182444 13 0 0.0 0.0 0.67 0.00 0.00 83 1030.5
20150306181944 13 0 0.0 0.0 0.67 0.00 0.00 84 1030.7
20150306181444 13 0 0.0 0.0 0.67 0.00 0.00 83 1030.7
20150306180944 13 0 0.0 0.0 0.67 0.00 0.00 83 1030.7
20150306180446 13 0 0.0 0.0 0.67 0.00 0.00 84 1031.0
20150306175944 13 0 0.0 0.0 0.67 0.00 0.00 84 1031.2
20150306175445 13 0 0.0 0.0 0.67 0.00 0.00 83 1031.3
20150306174945 12 0 0.0 0.0 0.67 0.00 0.00 85 1031.4
20150306174446 13 0 0.0 0.0 0.67 0.00 0.00 86 1031.6
20150306173945 12 0 0.0 0.0 0.67 0.00 0.00 86 1031.6
20150306173445 12 0 0.0 0.0 0.67 0.00 0.00 88 1031.9
20150306172945 12 0 0.0 0.0 0.67 0.00 0.00 89 1031.9
20150306172445 11 0 0.0 0.0 0.67 0.00 0.00 89 1032.1
20150306171945 11 0 0.0 0.0 0.67 0.00 0.00 90 1032.1
20150306171445 11 0 0.0 0.0 0.67 0.00 0.00 90 1032.2
20150306170945 11 0 0.0 0.0 0.67 0.00 0.00 90 1032.3
20150306170445 11 0 0.0 0.0 0.67 0.00 0.00 90 1032.3
20150306165945 11 0 0.0 0.0 0.67 0.00 0.00 91 1032.6
20150306165446 11 0 0.0 0.0 0.67 0.00 0.00 91 1032.7
20150306164945 10 0 0.0 0.0 0.67 0.00 0.00 91 1032.7
20150306164445 10 0 0.0 0.0 0.67 0.00 0.00 90 1032.7
20150306163945 10 0 0.0 0.0 0.67 0.00 0.00 91 1032.8
20150306163445 10 0 0.0 0.0 0.67 0.00 0.00 91 1032.8
20150306162947 9 0 0.0 0.0 0.67 0.00 0.00 91 1032.8
20150306162446 9 0 0.0 0.0 0.67 0.00 0.00 91 1032.9
20150306161945 9 0 0.0 0.0 0.67 0.00 0.00 92 1033.0
20150306161445 9 0 0.0 0.0 0.67 0.00 0.00 92 1032.8
20150306160945 9 0 0.0 0.0 0.67 0.00 0.00 92 1032.8
20150306160445 8 0 0.0 0.0 0.67 0.00 0.00 92 1033.0
20150306155945 8 0 0.0 0.0 0.67 0.00 0.00 92 1032.9
20150306155445 8 0 0.0 0.0 0.67 0.00 0.00 93 1032.9
20150306154945 8 0 0.0 0.0 0.67 0.00 0.00 93 1032.9
20150306154712 7 0 0.0 0.0 0.67 0.00 0.00 93 1032.9
20150306154445 7 0 0.0 0.0 0.67 0.00 0.00 93 1032.9
20150306153945 7 0 0.0 0.0 0.67 0.00 0.00 94 1033.0
20150306153659 7 0 0.0 0.0 0.67 0.00 0.00 94 1033.0
20150306153445 7 0 0.0 0.0 0.67 0.00 0.00 94 1033.0
20150306153239 6 0 0.0 0.0 0.67 0.00 0.00 94 1033.0
20150306152946 6 0 0.0 0.0 0.67 0.00 0.00 94 1033.0
20150306152445 6 0 0.0 0.0 0.67 0.00 0.00 94 1033.0
20150306151945 5 0 0.0 0.0 0.67 0.00 0.00 94 1033.0
20150306151445 5 0 0.0 0.0 0.67 0.00 0.00 95 1033.1
20150306151219 4 0 0.0 0.0 0.67 0.00 0.00 95 1033.1
20150306150945 4 0 0.0 0.0 0.67 0.00 0.00 95 1033.1
20150306150735 4 0 0.0 0.0 0.67 0.00 0.00 95 1033.1
20150306150445 4 0 0.0 0.0 0.67 0.00 0.00 95 1033.1
20150306145945 4 0 0.0 0.0 0.67 0.00 0.00 95 1033.0
20150306145445 3 0 0.0 0.0 0.67 0.00 0.00 95 1033.1
20150306145349 3 0 0.0 0.0 0.67 0.00 0.00 95 1033.1
20150306144945 3 0 0.0 0.0 0.67 0.00 0.00 95 1033.1
20150306144751 3 0 0.0 0.0 0.67 0.00 0.00 95 1033.1
20150306144446 3 0 0.0 0.0 0.67 0.00 0.00 95 1033.1
20150306144259 2 0 0.0 0.0 0.67 0.00 0.00 95 1033.2
20150306143945 2 0 0.0 0.0 0.67 0.00 0.00 95 1033.2
20150306143746 1 0 0.0 0.0 0.67 0.00 0.00 95 1033.3
20150306143445 1 0 0.0 0.0 0.67 0.00 0.00 95 1033.3
20150306142945 1 0 0.0 0.0 0.67 0.00 0.00 95 1033.3
20150306142445 1 0 0.0 0.0 0.67 0.00 0.00 95 1033.3
20150306142409 0 0 0.0 0.0 0.67 0.00 0.00 95 1033.4
20150306141946 0 0 0.0 0.0 0.67 0.00 0.00 95 1033.4
20150306141746 0 0 0.0 0.0 0.67 0.00 0.00 95 1033.4
20150306141445 0 0 0.0 0.0 0.67 0.00 0.00 95 1033.4
20150306140947 0 0 0.0 0.0 0.67 0.00 0.00 95 1033.5
20150306140445 -1 0 0.0 0.0 0.67 0.00 0.00 95 1033.4
20150306140300 -1 0 0.0 0.0 0.67 0.00 0.00 95 1033.4
20150306135945 -1 0 0.0 0.0 0.67 0.00 0.00 95 1033.4
20150306135744 -1 0 0.0 0.0 0.67 0.00 0.00 95 1033.5
20150306135446 -1 0 0.0 0.0 0.67 0.00 0.00 95 1033.5
20150306134945 -1 0 0.0 0.0 0.67 0.00 0.00 95 1033.5
20150306134743 -1 0 0.0 0.0 0.67 0.00 0.00 95 1033.6
20150306134447 -1 0 0.0 0.0 0.67 0.00 0.00 95 1033.6
20150306133945 -2 0 0.0 0.0 0.67 0.00 0.00 95 1033.6
20150306133723 -2 0 0.0 0.0 0.67 0.00 0.00 94 1033.6
20150306133445 -2 0 0.0 0.0 0.67 0.00 0.00 94 1033.6
20150306133241 -2 0 0.0 0.0 0.67 0.00 0.00 94 1033.8
20150306132945 -2 0 0.0 0.0 0.67 0.00 0.00 94 1033.8
20150306132836 -2 0 0.0 0.0 0.67 0.00 0.00 94 1033.7
20150306132445 -2 0 0.0 0.0 0.67 0.00 0.00 94 1033.7
20150306131946 -2 0 0.0 0.0 0.67 0.00 0.00 94 1033.7
20150306131718 -2 0 0.0 0.0 0.67 0.00 0.00 94 1033.7
20150306131445 -2 0 0.0 0.0 0.67 0.00 0.00 94 1033.7
20150306130945 -2 0 0.0 0.0 0.67 0.00 0.00 94 1033.7
20150306130738 -2 0 0.0 0.0 0.67 0.00 0.00 94 1033.7
20150306130445 -2 0 0.0 0.0 0.67 0.00 0.00 94 1033.7
20150306125947 -2 0 0.0 0.0 0.67 0.00 0.00 93 1033.7
20150306125445 -2 0 0.0 0.0 0.67 0.00 0.00 93 1033.8
20150306124948 -2 0 0.0 0.0 0.67 0.00 0.00 93 1033.7
20150306124445 -2 0 0.0 0.0 0.67 0.00 0.00 93 1033.6
20150306123946 -2 0 0.0 0.0 0.67 0.00 0.00 92 1033.6
20150306123447 -1 0 0.0 0.0 0.67 0.00 0.00 93 1033.6
20150306122945 -2 0 0.0 0.0 0.67 0.00 0.00 92 1033.6
20150306122446 -2 0 0.0 0.0 0.67 0.00 0.00 92 1033.7
20150306121946 -2 0 0.0 0.0 0.67 0.00 0.00 92 1033.6
20150306121655 -1 0 0.0 0.0 0.67 0.00 0.00 91 1033.6
20150306121445 -2 0 0.0 0.0 0.67 0.00 0.00 91 1033.7
20150306120945 -2 0 0.0 0.0 0.67 0.00 0.00 91 1033.6
20150306120449 -1 0 0.0 0.0 0.67 0.00 0.00 91 1033.6
20150306115946 -1 0 0.0 0.0 0.67 0.00 0.00 91 1033.6
20150306115901 -1 0 0.0 0.0 0.67 0.00 0.00 91 1033.6
20150306115445 -1 0 0.0 0.0 0.67 0.00 0.00 91 1033.6
20150306114945 0 0 0.0 0.0 0.67 0.00 0.00 90 1033.5
20150306114446 0 0 0.0 0.0 0.67 0.00 0.00 90 1033.5
20150306113945 0 0 0.0 0.0 0.67 0.00 0.00 90 1033.4
20150306113445 0 0 0.0 0.0 0.67 0.00 0.00 90 1033.4
20150306112945 0 0 0.0 0.0 0.67 0.00 0.00 90 1033.3
20150306112445 0 0 0.0 0.0 0.67 0.00 0.00 90 1033.2
20150306111945 0 0 0.0 0.0 0.67 0.00 0.00 90 1033.3
20150306111447 0 0 0.0 0.0 0.67 0.00 0.00 91 1033.3
20150306110945 0 0 0.0 0.0 0.67 0.00 0.00 90 1033.5
20150306110446 0 0 0.0 0.0 0.67 0.00 0.00 90 1033.4
20150306110110 0 0 0.0 0.0 0.67 0.00 0.00 90 1033.5
20150306105945 0 0 0.0 0.0 0.67 0.00 0.00 90 1033.5
20150306105446 0 0 0.0 0.0 0.67 0.00 0.00 90 1033.5
20150306104946 0 0 0.0 0.0 0.67 0.00 0.00 91 1033.6
20150306104702 0 0 0.0 0.0 0.67 0.00 0.00 91 1033.5
20150306104445 0 0 0.0 0.0 0.67 0.00 0.00 90 1033.5
20150306103946 0 0 0.0 0.0 0.67 0.00 0.00 90 1033.5
20150306103445 0 0 0.0 0.0 0.67 0.00 0.00 91 1033.5
20150306103107 0 0 0.0 0.0 0.67 0.00 0.00 90 1033.5
20150306102945 0 0 0.0 0.0 0.67 0.00 0.00 90 1033.5
20150306102624 0 0 0.0 0.0 0.67 0.00 0.00 91 1033.5
20150306102449 0 0 0.0 0.0 0.67 0.00 0.00 91 1033.5
20150306102054 0 0 0.0 0.0 0.67 0.00 0.00 91 1033.5
20150306101945 0 0 0.0 0.0 0.67 0.00 0.00 91 1033.5
20150306101635 0 0 0.0 0.0 0.67 0.00 0.00 91 1033.5
20150306101445 0 0 0.0 0.0 0.67 0.00 0.00 91 1033.5
20150306101106 0 0 0.0 0.0 0.67 0.00 0.00 90 1033.4
20150306100945 0 0 0.0 0.0 0.67 0.00 0.00 90 1033.4
20150306100546 0 0 0.0 0.0 0.67 0.00 0.00 91 1033.3
20150306100445 0 0 0.0 0.0 0.67 0.00 0.00 91 1033.3
20150306100117 0 0 0.0 0.0 0.67 0.00 0.00 90 1033.4
20150306095946 0 0 0.0 0.0 0.67 0.00 0.00 90 1033.4
20150306095634 0 0 0.0 0.0 0.67 0.00 0.00 90 1033.2
20150306095447 0 0 0.0 0.0 0.67 0.00 0.00 90 1033.2
20150306095100 0 0 0.0 0.0 0.67 0.00 0.00 90 1033.1
20150306094946 0 0 0.0 0.0 0.67 0.00 0.00 90 1033.1
20150306094823 0 0 0.0 0.0 0.67 0.00 0.00 90 1033.0
20150306094719 0 0 0.0 0.0 0.67 0.00 0.00 90 1033.0
20150306094625 0 0 0.0 0.0 0.67 0.00 0.00 90 1033.0
20150306094446 0 0 0.0 0.0 0.67 0.00 0.00 90 1033.0
20150306094141 0 0 0.0 0.0 0.67 0.00 0.00 90 1032.9
20150306093946 0 0 0.0 0.0 0.67 0.00 0.00 90 1032.9
20150306093657 0 0 0.0 0.0 0.67 0.00 0.00 90 1032.9
20150306093446 0 0 0.0 0.0 0.67 0.00 0.00 90 1032.9
20150306093126 0 0 0.0 0.0 0.67 0.00 0.00 91 1032.9
20150306092946 0 0 0.0 0.0 0.67 0.00 0.00 91 1032.9
20150306092449 0 0 0.0 0.0 0.67 0.00 0.00 91 1032.7
20150306092137 0 0 0.0 0.0 0.67 0.00 0.00 91 1032.7
20150306091946 0 0 0.0 0.0 0.67 0.00 0.00 91 1032.7
20150306091815 0 0 0.0 0.0 0.67 0.00 0.00 91 1032.7
20150306091624 0 0 0.0 0.0 0.67 0.00 0.00 91 1032.7
20150306091446 0 0 0.0 0.0 0.67 0.00 0.00 91 1032.7
20150306090946 0 0 0.0 0.0 0.67 0.00 0.00 91 1032.7
20150306090727 0 0 0.0 0.0 0.67 0.00 0.00 91 1032.7
20150306090654 0 0 0.0 0.0 0.67 0.00 0.00 91 1032.7
20150306090446 0 0 0.0 0.0 0.67 0.00 0.00 91 1032.7
20150306090112 0 0 0.0 0.0 0.67 0.00 0.00 91 1032.8
20150306085947 0 0 0.0 0.0 0.67 0.00 0.00 91 1032.8
20150306085623 -1 0 0.0 0.0 0.67 0.00 0.00 91 1032.8
20150306085446 -1 0 0.0 0.0 0.67 0.00 0.00 91 1032.8
20150306085102 0 0 0.0 0.0 0.67 0.00 0.00 92 1032.8
20150306084946 0 0 0.0 0.0 0.67 0.00 0.00 92 1032.8
20150306084715 -1 0 0.0 0.0 0.67 0.00 0.00 92 1032.8
20150306084446 -1 0 0.0 0.0 0.67 0.00 0.00 92 1032.8
20150306084221 0 0 0.0 0.0 0.67 0.00 0.00 91 1032.9
20150306084112 0 0 0.0 0.0 0.67 0.00 0.00 91 1032.9
20150306083947 0 0 0.0 0.0 0.67 0.00 0.00 91 1032.9
20150306083623 0 0 0.0 0.0 0.67 0.00 0.00 91 1032.9
20150306083446 0 0 0.0 0.0 0.67 0.00 0.00 91 1032.9
20150306083203 0 0 0.0 0.0 0.67 0.00 0.00 91 1032.9
20150306083126 0 0 0.0 0.0 0.67 0.00 0.00 91 1032.9
20150306082947 0 0 0.0 0.0 0.67 0.00 0.00 91 1032.9
20150306082624 0 0 0.0 0.0 0.67 0.00 0.00 92 1033.0
20150306082446 0 0 0.0 0.0 0.67 0.00 0.00 92 1033.0
20150306081946 0 0 0.0 0.0 0.67 0.00 0.00 92 1033.0
20150306081914 0 0 0.0 0.0 0.67 0.00 0.00 92 1033.0
20150306081739 0 0 0.0 0.0 0.67 0.00 0.00 92 1033.0
20150306081632 0 0 0.0 0.0 0.67 0.00 0.00 92 1033.0
20150306081448 0 0 0.0 0.0 0.67 0.00 0.00 92 1033.0
20150306081137 -1 0 0.0 0.0 0.67 0.00 0.00 93 1033.0
20150306080946 -1 0 0.0 0.0 0.67 0.00 0.00 93 1033.0
20150306080714 -1 0 0.0 0.0 0.67 0.00 0.00 92 1033.1
20150306080639 -1 0 0.0 0.0 0.67 0.00 0.00 92 1033.1
20150306080447 -1 0 0.0 0.0 0.67 0.00 0.00 92 1033.1
20150306075946 -1 0 0.0 0.0 0.67 0.00 0.00 92 1033.1
20150306075634 -1 0 0.0 0.0 0.67 0.00 0.00 92 1033.0
20150306075446 -1 0 0.0 0.0 0.67 0.00 0.00 92 1033.0
20150306075100 0 0 0.0 0.0 0.67 0.00 0.00 93 1033.0
20150306074946 0 0 0.0 0.0 0.67 0.00 0.00 92 1033.1
20150306074814 0 0 0.0 0.0 0.67 0.00 0.00 92 1033.1
20150306074633 0 0 0.0 0.0 0.67 0.00 0.00 92 1033.1
20150306074446 0 0 0.0 0.0 0.67 0.00 0.00 92 1033.1
20150306074127 0 0 0.0 0.0 0.67 0.00 0.00 92 1033.0
20150306073946 0 0 0.0 0.0 0.67 0.00 0.00 92 1033.0
20150306073629 0 0 0.0 0.0 0.67 0.00 0.00 92 1033.0
20150306073446 0 0 0.0 0.0 0.67 0.00 0.00 92 1033.0
20150306073110 0 0 0.0 0.0 0.67 0.00 0.00 93 1033.0
20150306072946 0 0 0.0 0.0 0.67 0.00 0.00 93 1033.0
20150306072641 0 0 0.0 0.0 0.67 0.00 0.00 93 1033.0
20150306072449 0 0 0.0 0.0 0.67 0.00 0.00 93 1033.0
20150306071948 0 0 0.0 0.0 0.67 0.00 0.00 93 1033.0
20150306071835 0 0 0.0 0.0 0.67 0.00 0.00 93 1033.0
20150306071613 0 0 0.0 0.0 0.67 0.00 0.00 93 1033.0
20150306071446 0 0 0.0 0.0 0.67 0.00 0.00 93 1033.0
20150306071127 0 0 0.0 0.0 0.67 0.00 0.00 93 1033.0
20150306070946 0 0 0.0 0.0 0.67 0.00 0.00 93 1033.0
20150306070607 -1 0 0.0 0.0 0.67 0.00 0.00 94 1033.1
20150306070446 -1 0 0.0 0.0 0.67 0.00 0.00 94 1033.1
20150306070135 0 0 0.0 0.0 0.67 0.00 0.00 94 1033.1
20150306065946 0 0 0.0 0.0 0.67 0.00 0.00 94 1033.1
20150306065640 -1 0 0.0 0.0 0.67 0.00 0.00 94 1033.0
20150306065447 -1 0 0.0 0.0 0.67 0.00 0.00 94 1033.0
20150306065104 -1 0 0.0 0.0 0.67 0.00 0.00 94 1033.1
20150306064946 -1 0 0.0 0.0 0.67 0.00 0.00 94 1033.1
20150306064820 -1 0 0.0 0.0 0.67 0.00 0.00 94 1033.0
20150306064627 -1 0 0.0 0.0 0.67 0.00 0.00 94 1033.0
20150306064447 -1 0 0.0 0.0 0.67 0.00 0.00 94 1033.0
20150306064152 -1 0 0.0 0.0 0.67 0.00 0.00 94 1033.0
20150306063946 -1 0 0.0 0.0 0.67 0.00 0.00 94 1033.0
20150306063720 0 0 0.0 0.0 0.67 0.00 0.00 94 1033.0
20150306063446 0 0 0.0 0.0 0.67 0.00 0.00 94 1033.0
20150306063127 0 0 0.0 0.0 0.67 0.00 0.00 94 1032.8
20150306062946 0 0 0.0 0.0 0.67 0.00 0.00 94 1032.8
20150306062640 0 0 0.0 0.0 0.67 0.00 0.00 94 1032.8
20150306062446 0 0 0.0 0.0 0.67 0.00 0.00 94 1032.8
20150306062130 1 0 0.0 0.0 0.67 0.00 0.00 94 1032.8
20150306061946 1 0 0.0 0.0 0.67 0.00 0.00 94 1032.8
20150306061836 1 0 0.0 0.0 0.67 0.00 0.00 94 1032.7
20150306061627 1 0 0.0 0.0 0.67 0.00 0.00 94 1032.7
20150306061446 1 0 0.0 0.0 0.67 0.00 0.00 94 1032.7
20150306061140 1 0 0.0 0.0 0.67 0.00 0.00 94 1032.6
20150306060946 1 0 0.0 0.0 0.67 0.00 0.00 94 1032.6
20150306060621 1 0 0.0 0.0 0.67 0.00 0.00 94 1032.6
20150306060446 1 0 0.0 0.0 0.67 0.00 0.00 94 1032.6
20150306060133 1 0 0.0 0.0 0.67 0.00 0.00 94 1032.6
20150306055946 1 0 0.0 0.0 0.67 0.00 0.00 94 1032.6
20150306055632 1 0 0.0 0.0 0.67 0.00 0.00 95 1032.5
20150306055446 1 0 0.0 0.0 0.67 0.00 0.00 95 1032.5
20150306055205 1 0 0.0 0.0 0.67 0.00 0.00 95 1032.5
20150306054946 1 0 0.0 0.0 0.67 0.00 0.00 95 1032.5
20150306054841 1 0 0.0 0.0 0.67 0.00 0.00 95 1032.6
20150306054712 1 0 0.0 0.0 0.67 0.00 0.00 95 1032.6
20150306054446 1 0 0.0 0.0 0.67 0.00 0.00 95 1032.6
20150306054141 1 0 0.0 0.0 0.67 0.00 0.00 95 1032.5
20150306053946 1 0 0.0 0.0 0.67 0.00 0.00 95 1032.5
20150306053621 1 0 0.0 0.0 0.67 0.00 0.00 95 1032.6
20150306053446 1 0 0.0 0.0 0.67 0.00 0.00 95 1032.6
20150306053123 1 0 0.0 0.0 0.67 0.00 0.00 95 1032.6
20150306052946 1 0 0.0 0.0 0.67 0.00 0.00 95 1032.6
20150306052729 1 0 0.0 0.0 0.67 0.00 0.00 95 1032.6
20150306052446 1 0 0.0 0.0 0.67 0.00 0.00 95 1032.6
20150306052122 1 0 0.0 0.0 0.67 0.00 0.00 95 1032.6
20150306051949 1 0 0.0 0.0 0.67 0.00 0.00 95 1032.6
20150306051446 1 0 0.0 0.0 0.67 0.00 0.00 95 1032.6
20150306051122 1 0 0.0 0.0 0.67 0.00 0.00 95 1032.6
20150306050947 1 0 0.0 0.0 0.67 0.00 0.00 95 1032.6
20150306050645 1 0 0.0 0.0 0.67 0.00 0.00 95 1032.6
20150306050446 1 0 0.0 0.0 0.67 0.00 0.00 95 1032.6
20150306050143 1 0 0.0 0.0 0.67 0.00 0.00 95 1032.7
20150306045946 1 0 0.0 0.0 0.67 0.00 0.00 95 1032.7
20150306045653 1 0 0.0 0.0 0.67 0.00 0.00 95 1032.8
20150306045446 1 0 0.0 0.0 0.67 0.00 0.00 95 1032.8
20150306044946 1 0 0.0 0.0 0.67 0.00 0.00 95 1032.7
20150306044447 1 0 0.0 0.0 0.67 0.00 0.00 95 1032.7
20150306044208 1 0 0.0 0.0 0.67 0.00 0.00 95 1032.9
20150306043946 1 0 0.0 0.0 0.67 0.00 0.00 95 1032.9
20150306043729 1 0 0.0 0.0 0.67 0.00 0.00 95 1032.9
20150306043446 1 0 0.0 0.0 0.67 0.00 0.00 95 1032.9
20150306043226 1 0 0.0 0.0 0.67 0.00 0.00 95 1032.9
20150306043135 1 0 0.0 0.0 0.67 0.00 0.00 95 1032.9
20150306042946 1 0 0.0 0.0 0.67 0.00 0.00 95 1032.9
20150306042712 1 0 0.0 0.0 0.67 0.00 0.00 95 1032.9
20150306042446 1 0 0.0 0.0 0.67 0.00 0.00 95 1032.9
20150306042136 1 0 0.0 0.0 0.67 0.00 0.00 95 1032.9
20150306041946 1 0 0.0 0.0 0.67 0.00 0.00 95 1032.9
20150306041652 1 0 0.0 0.0 0.67 0.00 0.00 95 1033.0
20150306041447 1 0 0.0 0.0 0.67 0.00 0.00 95 1033.0
20150306040946 1 0 0.0 0.0 0.67 0.00 0.00 95 1033.0
20150306040449 1 0 0.0 0.0 0.67 0.00 0.00 95 1033.0
20150306040141 1 0 0.0 0.0 0.67 0.00 0.00 95 1032.9
20150306035946 1 0 0.0 0.0 0.67 0.00 0.00 95 1032.9
20150306035618 1 0 0.0 0.0 0.67 0.00 0.00 94 1033.0
20150306035446 1 0 0.0 0.0 0.67 0.00 0.00 94 1033.0
20150306035142 1 0 0.0 0.0 0.67 0.00 0.00 94 1033.0
20150306034946 1 0 0.0 0.0 0.67 0.00 0.00 94 1033.0
20150306034823 1 0 0.0 0.0 0.67 0.00 0.00 94 1033.0
20150306034629 1 0 0.0 0.0 0.67 0.00 0.00 94 1033.0
20150306034446 1 0 0.0 0.0 0.67 0.00 0.00 94 1033.0
20150306034215 1 0 0.0 0.0 0.67 0.00 0.00 94 1032.9
20150306033946 1 0 0.0 0.0 0.67 0.00 0.00 94 1032.9
20150306033639 1 0 0.0 0.0 0.67 0.00 0.00 94 1032.9
20150306033446 1 0 0.0 0.0 0.67 0.00 0.00 94 1032.9
20150306033156 1 0 0.0 0.0 0.67 0.00 0.00 94 1032.9
20150306032946 1 0 0.0 0.0 0.67 0.00 0.00 94 1032.9
20150306032628 1 0 0.0 0.0 0.67 0.00 0.00 94 1032.8
20150306032446 1 0 0.0 0.0 0.67 0.00 0.00 94 1032.8
20150306031947 1 0 0.0 0.0 0.67 0.00 0.00 94 1032.8
20150306031446 1 0 0.0 0.0 0.67 0.00 0.00 94 1032.8
20150306031230 1 0 0.0 0.0 0.67 0.00 0.00 94 1032.9
20150306030947 1 0 0.0 0.0 0.67 0.00 0.00 94 1032.9
20150306030728 1 0 0.0 0.0 0.67 0.00 0.00 94 1032.8
20150306030446 1 0 0.0 0.0 0.67 0.00 0.00 94 1032.8
20150306025947 1 0 0.0 0.0 0.67 0.00 0.00 94 1032.8
20150306025446 1 0 0.0 0.0 0.67 0.00 0.00 93 1032.8
20150306025153 1 0 0.0 0.0 0.67 0.00 0.00 94 1032.7
20150306024947 1 0 0.0 0.0 0.67 0.00 0.00 94 1032.7
20150306024922 1 0 0.0 0.0 0.67 0.00 0.00 93 1032.5
20150306024446 1 0 0.0 0.0 0.67 0.00 0.00 94 1032.6
20150306024124 1 0 0.0 0.0 0.67 0.00 0.00 93 1032.5
20150306023946 1 0 0.0 0.0 0.67 0.00 0.00 93 1032.5
20150306023619 1 0 0.0 0.0 0.67 0.00 0.00 93 1032.5
20150306023447 1 0 0.0 0.0 0.67 0.00 0.00 93 1032.5
20150306023133 1 0 0.0 0.0 0.67 0.00 0.00 93 1032.5
20150306022946 1 0 0.0 0.0 0.67 0.00 0.00 93 1032.5
20150306022618 1 0 0.0 0.0 0.67 0.00 0.00 93 1032.4
20150306022447 1 0 0.0 0.0 0.67 0.00 0.00 93 1032.4
20150306022209 1 0 0.0 0.0 0.67 0.00 0.00 93 1032.5
20150306021947 1 0 0.0 0.0 0.67 0.00 0.00 93 1032.5
20150306021619 1 0 0.0 0.0 0.67 0.00 0.00 93 1032.4
20150306021447 1 0 0.0 0.0 0.67 0.00 0.00 93 1032.4
20150306020947 1 0 0.0 0.0 0.67 0.00 0.00 92 1032.3
20150306020705 1 0 0.0 0.0 0.67 0.00 0.00 92 1032.4
20150306020447 1 0 0.0 0.0 0.67 0.00 0.00 92 1032.4
20150306020120 1 0 0.0 0.0 0.67 0.00 0.00 92 1032.3
20150306015947 1 0 0.0 0.0 0.67 0.00 0.00 92 1032.3
20150306015628 1 0 0.0 0.0 0.67 0.00 0.00 92 1032.2
20150306015447 1 0 0.0 0.0 0.67 0.00 0.00 92 1032.2
20150306015112 1 0 0.0 0.0 0.67 0.00 0.00 92 1032.1
20150306014947 1 0 0.0 0.0 0.67 0.00 0.00 92 1032.1
20150306014447 1 0 0.0 0.0 0.67 0.00 0.00 92 1032.2
20150306014208 1 0 0.0 0.0 0.67 0.00 0.00 92 1032.1
20150306013947 1 0 0.0 0.0 0.67 0.00 0.00 92 1032.1
20150306013757 2 0 0.0 0.0 0.67 0.00 0.00 91 1032.1
20150306013447 2 0 0.0 0.0 0.67 0.00 0.00 91 1032.1
20150306013211 2 0 0.0 0.0 0.67 0.00 0.00 91 1032.1
20150306012947 2 0 0.0 0.0 0.67 0.00 0.00 91 1032.1
20150306012728 1 0 0.0 0.0 0.67 0.00 0.00 91 1031.9
20150306012449 1 0 0.0 0.0 0.67 0.00 0.00 91 1031.9
20150306012132 2 0 0.0 0.0 0.67 0.00 0.00 91 1031.9
20150306011947 2 0 0.0 0.0 0.67 0.00 0.00 91 1031.9
20150306011708 2 0 0.0 0.0 0.67 0.00 0.00 91 1032.1
20150306011451 2 0 0.0 0.0 0.67 0.00 0.00 91 1032.1
20150306010947 2 0 0.0 0.0 0.67 0.00 0.00 91 1031.9
20150306010447 2 0 0.0 0.0 0.67 0.00 0.00 91 1031.9
20150306005947 2 0 0.0 0.0 0.67 0.00 0.00 91 1031.8
20150306005447 2 0 0.0 0.0 0.67 0.00 0.00 90 1031.7
20150306004949 2 0 0.0 0.0 0.67 0.00 0.00 91 1031.7
20150306004447 2 0 0.0 0.0 0.67 0.00 0.00 90 1031.6
20150306003947 2 0 0.0 0.0 0.67 0.00 0.00 90 1031.4
20150306003657 2 0 0.0 0.0 0.67 0.00 0.00 90 1031.4
20150306003447 2 0 0.0 0.0 0.67 0.00 0.00 90 1031.4
20150306002947 3 0 0.0 0.0 0.67 0.00 0.00 90 1031.3
20150306002609 3 0 0.0 0.0 0.67 0.00 0.00 90 1031.2
20150306002447 3 0 0.0 0.0 0.67 0.00 0.00 90 1031.2
20150306001947 3 0 0.0 0.0 0.67 0.00 0.00 90 1031.2
20150306001619 3 0 0.0 0.0 0.67 0.00 0.00 90 1031.1
20150306001447 3 0 0.0 0.0 0.67 0.00 0.00 90 1031.1
20150306000947 3 0 0.0 0.0 0.67 0.00 0.00 90 1031.0
20150306000448 3 0 0.0 0.0 0.67 0.00 0.00 89 1030.9
20150305235948 3 0 0.0 0.0 0.67 0.00 0.00 89 1030.8
20150305235723 3 0 0.0 0.0 0.67 0.00 0.00 89 1030.6
20150305235448 3 0 0.0 0.0 0.67 0.00 0.00 89 1030.6
20150305235144 3 0 0.0 0.0 0.67 0.00 0.00 89 1030.7
20150305234947 3 0 0.0 0.0 0.67 0.00 0.00 89 1030.7
20150305234753 4 0 0.0 0.0 0.67 0.00 0.00 89 1030.5
20150305234447 4 0 0.0 0.0 0.67 0.00 0.00 89 1030.5
20150305234212 4 0 0.0 0.0 0.67 0.00 0.00 89 1030.4
20150305233947 4 0 0.0 0.0 0.67 0.00 0.00 89 1030.4
20150305233655 4 0 0.0 0.0 0.67 0.00 0.00 88 1030.3
20150305233449 4 0 0.0 0.0 0.67 0.00 0.00 88 1030.3
20150305233058 4 0 0.0 0.0 0.67 0.00 0.00 88 1030.2
20150305232947 4 0 0.0 0.0 0.67 0.00 0.00 88 1030.2
20150305232615 4 0 0.0 0.0 0.67 0.00 0.00 88 1030.0
20150305232448 4 0 0.0 0.0 0.67 0.00 0.00 88 1030.0
20150305232118 4 0 0.0 0.0 0.67 0.00 0.00 87 1029.8
20150305231948 4 0 0.0 0.0 0.67 0.00 0.00 87 1029.8
20150305231448 4 0 0.0 0.0 0.67 0.00 0.00 87 1029.7
20150305230948 5 0 0.0 0.0 0.67 0.00 0.00 86 1029.6
20150305230448 5 0 0.0 0.0 0.67 0.00 0.00 86 1029.5
20150305230111 5 0 0.0 0.0 0.67 0.00 0.00 85 1029.5
20150305225947 5 0 0.0 0.0 0.67 0.00 0.00 85 1029.5
20150305225656 6 0 0.0 0.0 0.67 0.00 0.00 85 1029.4
20150305225448 6 0 0.0 0.0 0.67 0.00 0.00 85 1029.4
20150305224947 6 0 0.0 0.0 0.67 0.00 0.00 84 1029.2
20150305224449 6 0 0.0 0.0 0.67 0.00 0.00 83 1029.2
20150305224053 6 0 0.0 0.0 0.67 0.00 0.00 83 1029.0
20150305223948 6 0 0.0 0.0 0.67 0.00 0.00 83 1029.0
20150305223605 6 0 0.0 0.0 0.67 0.00 0.00 82 1029.2
20150305223447 6 0 0.0 0.0 0.67 0.00 0.00 82 1029.2
20150305222947 6 0 0.0 0.0 0.67 0.00 0.00 82 1029.0
20150305222448 6 0 0.0 0.0 0.67 0.00 0.00 82 1029.2
20150305221948 6 0 0.0 0.0 0.67 0.00 0.00 82 1029.0
20150305221608 6 0 0.0 0.0 0.67 0.00 0.00 82 1029.0
20150305221448 6 0 0.0 0.0 0.67 0.00 0.00 82 1029.0
20150305220948 6 0 0.0 0.0 0.67 0.00 0.00 82 1028.9
20150305220653 6 0 0.0 0.0 0.67 0.00 0.00 82 1028.9
20150305220447 6 0 0.0 0.0 0.67 0.00 0.00 82 1028.9
20150305220158 6 0 0.0 0.0 0.67 0.00 0.00 82 1028.8
20150305215947 6 0 0.0 0.0 0.67 0.00 0.00 82 1028.8
20150305215814 6 0 0.0 0.0 0.67 0.00 0.00 82 1028.7
20150305215721 6 0 0.0 0.0 0.67 0.00 0.00 82 1028.7
20150305215447 6 0 0.0 0.0 0.67 0.00 0.00 82 1028.7
20150305214947 6 0 0.0 0.0 0.67 0.00 0.00 82 1028.6
20150305214635 6 0 0.0 0.0 0.67 0.00 0.00 82 1028.6
20150305214450 6 0 0.0 0.0 0.67 0.00 0.00 82 1028.6
20150305214131 6 0 0.0 0.0 0.67 0.00 0.00 82 1028.5
20150305213949 6 0 0.0 0.0 0.67 0.00 0.00 82 1028.5
20150305213708 6 0 0.0 0.0 0.67 0.00 0.00 83 1028.4
20150305213448 6 0 0.0 0.0 0.67 0.00 0.00 83 1028.4